sat.trackr.live / text

‹ back to catalog

STARLINK-30512

NORAD 57976 · 2023-151N

PAYLOAD ACTIVE UNKNOWN

§ Identity

Operator
Country
US
Launch date
2023-09-30
Launch site
AFETR
Launch vehicle
Mass (kg)
RCS (m²)

Purposes: comms

External: N2YO · Heavens-Above · Gunter

§ Orbital elements

Epoch: 2026-05-25T00:48:46.133856Z

Period
94.27 min
Inclination
43.0029°
Eccentricity
0.0001250
Mean motion
15.27587666 rev/d
Perigee alt
482.2 km
Apogee alt
483.9 km
Semi-major
6,861.2 km
B*
6.0158e-5
RAAN
264.6706°
Arg perigee
281.2792°
Mean anomaly
78.7919°
Rev number
14,744

§ Raw data

STARLINK-305121 57976U 23151N   26145.03386729  .00001394  00000+0  60158-4 0  99922 57976  43.0029 264.6706 0001250 281.2792  78.7919 15.27587666147448

JSON: /api/v1/satellites/57976 · /tle

For live sub-satellite position, see the globe view (requires WebGL).

§ Visibility from observer

Set your observer location to see the next 7 days of passes ≥ 10°. The values pass through the URL so the page stays shareable.

No JS? Fill the form by hand. The geolocation button needs JavaScript.